Regional Weather Roundup
Issued by NWS Charleston, SC

Current Version | Previous Version | Text Only | Print | Product List | Glossary Off
Versions: 1 2 3 4 5 6 7 8 9 10 11 12 13 14 15 16 17 18 19 20 21 22 23 24 25 26 27 28 29 30 31 32 33 34 35 36 37 38 39 40 41 42 43 44 45 46 47 48 49 50
200 ASUS42 KCHS 210927 RWRCHS REGIONAL WEATHER ROUNDUP NATIONAL WEATHER SERVICE CHARLESTON SC 400 AM EST SAT JAN 21 2017 NOTE: "FAIR" INDICATES FEW OR NO CLOUDS BELOW 12,000 FEET WITH NO SIGNIFICANT WEATHER AND/OR OBSTRUCTIONS TO VISIBILITY. NOT ALL STATIONS ARE QUALITY CONTROLLED. USE DATA WITH CAUTION... ESPECIALLY DEWPOINT OBSERVATIONS. SCZ027-030-031-034>040-042>050-211000- ...SOUTHEAST SOUTH CAROLINA... CITY SKY/WX TMP DP RH WIND PRES REMARKS N CHARLESTON CLOUDY 64 62 93 S6 29.88F WATERFRONT PRK N/A 62 62 100 CALM 29.88F MOUNT PLEASANT PTSUNNY 64 64 100 S5 29.89S JOHNS ISLAND CLOUDY 63 63 100 CALM 29.90S PINOPOLIS N/A 64 63 94 VRB3 29.80F MONCKS CORNER LGT RAIN 61 59 94 CALM 29.89S SUMMERVILLE CLOUDY N/A N/A N/A CALM 29.90S BEAUFORT MCAS PTCLDY 64 62 93 S3 29.90S BEAUFORT ARPT FAIR 61 61 100 S5 29.89F HILTON HEAD IS CLOUDY 63 63 100 S3 29.91S WALTERBORO CLOUDY 63 63 100 CALM 29.90S ALLENDALE CLOUDY 63 63 100 CALM 29.87F FOG ...SOUTHERN MIDLANDS AND PEE DEE... CITY SKY/WX TMP DP RH WIND PRES REMARKS GEORGETOWN CLOUDY 61 61 100 CALM 29.89F KINGSTREE PTSUNNY 59 55 88 CALM 29.89S FOG ORANGEBURG CLOUDY 61 60 97 CALM 29.89F BARNWELL CLOUDY 64 64 100 CALM 29.88F AIKEN CLOUDY 59 57 94 CALM 29.92F MANNING PTSUNNY 57 55 94 CALM 29.89F COLUMBIA CLOUDY 60 57 89 CALM 29.87F SUMTER CLOUDY 57 55 94 CALM 29.87S FLORENCE FOG 55 55 100 CALM 29.90R VSB 1/2 MYRTLE BEACH CLOUDY 61 55 82 CALM 29.91F N MYRTLE BEACH PTCLDY 53 53 100 CALM 29.89F FOG $$ GAZ063-065-086>088-099>101-113>116-118-119-134>141-150-211000- ...SOUTHEAST GEORGIA... CITY SKY/WX TMP DP RH WIND PRES REMARKS SAVANNAH ARPT CLOUDY 63 61 93 CALM 29.90F HUNTER AAF CLOUDY 65 65 100 S5 29.87F FORT STEWART CLOUDY 64 63 97 CALM 29.87F STATESBORO CLOUDY 64 32 29 CALM 29.88F HAZE SYLVANIA CLOUDY N/A N/A N/A CALM 29.89F FOG CLAXTON CLOUDY N/A N/A N/A CALM 29.88F ...CSRA...CENTRAL AND FAR SOUTHEAST GEORGIA... CITY SKY/WX TMP DP RH WIND PRES REMARKS THOMSON CLOUDY 63 63 100 CALM 29.91F VSB 1/2 AUGUSTA-BUSH CLOUDY 61 57 87 SE3 29.87F AUGUSTA-DANIEL CLOUDY 64 60 87 S5 29.88F SWAINSBORO CLOUDY 66 64 94 CALM 29.89F FOG VIDALIA CLOUDY 68 68 100 CALM 29.88F EASTMAN CLOUDY 68 68 100 CALM 29.90F HAZLEHURST CLOUDY 69 69 100 SW3 29.88S ALMA CLOUDY 69 68 96 S5 29.88F WAYCROSS CLOUDY 72 72 100 SW7 29.89F JESUP CLOUDY 70 64 83 CALM 29.89F BAXLEY CLOUDY 70 70 100 CALM 29.88S BRUNSWICK CLOUDY 68 68 100 SW7 29.91S SAINT SIMONS CLOUDY 67 65 93 SW7 29.91S $$ SCZ027-028-034-036>038-045-046-048>050-GAZ119-141-211000- ...LAKE AND SUPPLEMENTAL COASTAL OBSERVATIONS... STATION/POSITION TIME TEMP WIND PRES WAVE SWELL AIR SEA DIR/SP/G HT/PER HT/PER/DIR (UTC) (F) (DEG/KT/KT) (MB) (FT/S) (FT/S/D) WINYAH BAY 0845 61 CALM 1012.0F LAKE MURRAY 0830 58 CALM 1011.5S ACE BASIN NERRS 0845 62 CALM 1012.0F FORT PULASKI 0900 63 58 220/ 5/ 6 1012.7 SAPELO ISLAND 0900 64 190/ 4 1013.0 $$ ANZ835-935-AMZ111-154-330-350-352-354-370-450-454-472-211000- ...C-MAN AND BUOY OBSERVATIONS... STATION/POSITION TIME TEMP WIND PRES WAVE SWELL AIR SEA DIR/SP/G HT/PER HT/PER/DIR (UTC) (F) (DEG/KT/KT) (MB) (FT/S) (FT/S/D) BUOY 41004 0850 70 68 190/ 4/ 4 1012.0F 2/13 2/100/13 BUOY 41008 0850 64 61 190/ 10/ 12 1012.3R 2/13 2/ 80/13 FOLLY BEACH CMAN 0900 62 220/ 3/ 3 1012.6F CAPERS NEARSHORE 0808 59 56 250/ 4/ 6 1012.3F FRIPP NEARSHORE 0908 61 58 200/ 6/ 8 1012.2F STATION/POSITION TIME TEMP WIND PRES WAVE SWELL AIR SEA DIR/SP/G HT/PER HT/PER/DIR (UTC) (F) (DEG/KT/KT) (MB) (FT/S) (FT/S/D) 5E ST. MARYS GA 0900 64 N/A 2/12 2/ 80/12 FRYING PAN BUOY 0910 69 71 260/ 6/ 8 1012.4 BUOY 41025 0850 56 74 360/ 14/ 17 1012.6R 5/11 3/ 90/11 CAPE LOOKOUT NC 0900 50 20/ 7/ 8 1012.8F BUOY 41002 0850 72 70 280/ 14/ 17 1012.6F 6/ 6 5/ 40/13 BUOY 41010 NOT AVBL ST AUGUSTINE FL 0900 65 63 240/ 6/ 8 1014.5F $$

USA.gov is the U.S. government's official web portal to all federal, state and local government web resources and services.